sat.trackr.live / text

‹ back to catalog

STARLINK-36300

NORAD 68303 · 2026-057K

PAYLOAD ACTIVE UNKNOWN

§ Identity

Operator
Country
US
Launch date
2026-03-20
Launch site
AFWTR
Launch vehicle
Mass (kg)
RCS (m²)

Purposes: comms

External: N2YO · Heavens-Above · Gunter

§ Orbital elements

Epoch: 2026-09-19T15:39:36.067392Z

Period
93.91 min
Inclination
97.2852°
Eccentricity
0.0001142
Mean motion
15.33423018 rev/d
Perigee alt
464.8 km
Apogee alt
466.4 km
Semi-major
6,843.7 km
B*
6.9340e-4
RAAN
28.0654°
Arg perigee
80.5548°
Mean anomaly
279.5824°
Rev number
2,838

§ Raw data

STARLINK-363001 68303U 26057K   26262.65250078  .00022361  00000+0  69340-3 0  99992 68303  97.2852  28.0654 0001142  80.5548 279.5824 15.33423018 28386

JSON: /api/v1/satellites/68303 · /tle

For live sub-satellite position, see the globe view (requires WebGL).

§ Visibility from observer

Set your observer location to see the next 7 days of passes ≥ 10°. The values pass through the URL so the page stays shareable.

No JS? Fill the form by hand. The geolocation button needs JavaScript.